Back to catalog

SL-14 DEB

AlivePO
NORAD 17270·DEBRIS·🇷🇺 Russia

Launched Dec 18, 1986 from Plesetsk Cosmodrome

Loading…

Next Passes (next 24 hours)

TLE

FreshSource: Space-Track

Epoch: Sep 14, 2026, 04:34 UTC

1 17270U 86101E   26257.19035807  .00000302  00000-0  21945-3 0  9997
2 17270  82.4364 341.2990 0002045 252.6064 134.0898 13.93486990 13032

Track SL-14 DEB in real time with AllMySat

Download on the App Store